Dewpoint
38 38 38 36 36 37 37 32 28 37 46 45 51 50 55 59 61 62 59 58 58 60 62 62 61 62 61 62 62 62 62 61 63 65 65 66 65 66 67 66 67 67 67 67
36 39 38 33 36 35 35 34 27 36 43 48 51 54 57 57 57 63 63 59 59 59 60 60 60 61 61 61 61 61 60 61 62 62 63 63 64 64 65 65 66 66 66 67
36 41 39 36 36 37 37 33 24 36 44 49 52 56 58 53 55 62 62 58 58 59 60 61 61 60 57 59 60 59 59 60 61 62 62 63 64 65 65 65 66 66 66 67
36 40 36 33 36 37 36 28 27 43 47 48 54 55 62 58 57 62 62 60 61 56 57 57 57 56 57 57 58 59 60 62 63 63 63 64 64 64 64 64 64 64 64 65
30 30 29 30 30 30 29 33 35 43 45 49 55 55 57 60 61 60 61 61 59 56 56 56 56 57 58 58 59 60 61 62 63 64 62 62 61 62 63 63 63 62 62 63
32 28 26 31 33 31 30 36 38 45 45 44 51 51 54 56 58 57 55 54 52 53 55 57 58 59 59 59 59 60 60 62 63 63 63 62 62 62 62 61 62 62 62 63
35 33 34 43 35 33 32 40 46 48 49 50 50 51 51 52 51 51 52 52 53 56 57 56 56 57 58 58 58 59 61 61 60 61 61 61 61 60 60 60 60 60 60 60
35 37 38 47 44 43 46 49 48 49 51 51 51 50 50 50 50 51 53 54 54 55 55 55 55 55 55 56 56 56 57 59 60 60 60 60 59 59 60 60 59 59 59 59
38 47 48 46 44 47 48 49 49 46 47 48 48 49 50 50 51 53 53 53 53 52 52 53 53 53 53 53 54 54 55 56 57 58 57 57 56 56 56 55 57 58 58 57
40 47 45 44 47 48 48 46 47 48 48 49 48 49 50 50 50 51 51 50 51 51 51 50 51 52 52 52 54 53 52 52 51 51 52 54 53 53 53 54 55 56 57 58
40 48 46 48 49 47 49 49 48 48 49 49 49 49 48 48 50 49 49 51 51 51 50 50 50 50 51 53 52 50 49 49 50 50 49 50 51 51 51 52 52 53 54 53
44 52 50 50 50 50 51 49 49 50 50 48 47 46 48 49 49 49 50 50 49 49 49 49 50 49 49 49 48 48 49 47 46 46 46 46 47 46 49 49 48 47 46 47
51 50 50 49 50 51 51 49 47 48 47 47 46 46 46 46 48 50 48 48 49 49 49 50 49 48 47 48 50 48 46 46 45 45 43 43 43 42 43 44 46 46 45 46
52 52 50 50 50 50 48 46 47 46 45 44 45 47 48 48 49 48 48 48 48 48 48 49 49 49 49 48 47 48 47 47 44 44 45 46 46 46 47 46 46 46 46 46
50 52 51 50 50 48 48 46 46 46 43 43 48 48 49 48 48 48 47 47 48 47 48 49 48 49 49 48 48 48 46 45 45 46 46 46 47 46 45 47 48 48 46 46
50 50 50 50 50 49 47 45 45 44 43 46 48 48 48 48 48 47 47 47 45 46 48 49 49 49 49 49 48 46 45 47 46 43 44 44 45 44 45 43 43 44 42 43
51 51 51 50 50 48 46 43 43 44 46 49 48 48 48 47 46 45 45 46 46 46 49 49 50 49 47 48 46 44 43 43 44 42 41 40 41 40 41 41 41 42 41 40
55 54 53 52 50 48 45 44 43 45 46 49 49 47 46 47 46 46 47 46 47 48 48 46 46 46 47 45 45 43 42 41 41 40 41 40 40 41 41 40 41 42 40 39
52 52 52 52 50 48 46 44 45 46 48 49 48 46 47 46 46 46 47 46 47 44 44 45 48 48 45 45 45 42 41 41 41 41 41 42 39 38 38 38 40 40 39 40
51 50 49 48 48 46 44 44 45 47 47 47 47 46 45 45 46 45 47 46 46 44 44 42 44 45 45 44 44 41 41 41 42 42 42 42 40 38 38 37 38 38 39 41
50 49 49 49 47 48 47 46 46 45 44 46 44 44 44 45 47 48 46 44 47 43 43 46 46 45 44 44 43 41 41 41 43 43 42 41 40 38 37 37 37 38 39 40
50 48 48 48 47 48 48 47 47 46 44 44 44 44 43 44 47 47 48 43 44 45 41 41 45 46 44 46 43 41 42 43 43 43 43 42 40 39 38 37 37 38 39 40
52 51 49 48 48 48 47 48 48 47 45 44 44 44 43 44 44 43 39 43 43 43 39 43 45 47 48 45 45 43 43 43 43 43 43 42 41 40 39 38 37 39 39 39
53 52 50 49 50 49 48 49 48 49 48 46 45 47 44 44 43 42 43 44 44 42 42 44 44 47 48 45 44 44 44 43 44 44 43 42 42 41 40 39 39 39 39 39
55 52 50 49 49 48 51 51 51 51 50 50 48 48 47 46 46 43 46 45 46 42 44 45 47 48 46 42 43 45 45 45 44 44 43 43 42 41 40 39 39 39 38 39
53 50 50 51 49 49 51 50 49 49 46 45 46 45 43 46 46 43 46 45 45 45 44 43 43 43 41 40 41 45 46 45 44 44 43 42 41 40 39 39 38 38 39 38
54 50 51 51 50 50 48 46 44 43 43 42 42 45 46 46 46 44 45 44 45 44 44 43 43 43 41 41 42 44 45 45 43 43 43 42 40 39 38 38 39 39 39 38
Lifted_Index
1 1 2 1 1 1 1 1 0 -1 -1 -1 -1 -1 -1 -1 -1 -2 -2 -3 -3 -3 -3 -2 -2 -2 -2 -1 -1 -0 0 0 0 0 0 -0 -0 -0 -1 -1 -0 -0 -0 -0
1 1 1 1 1 1 1 1 0 -1 -1 -1 -1 -2 -2 -2 -2 -2 -2 -2 -3 -3 -2 -2 -1 -1 -0 0 0 0 0 1 1 1 1 0 0 -0 -0 -0 -0 -0 -1 -1
0 0 1 1 1 1 1 1 0 -1 -2 -2 -3 -3 -3 -3 -2 -2 -2 -2 -2 -2 -1 -1 0 1 1 1 1 1 1 0 1 1 1 0 -0 -0 -0 0 0 -0 -0 -1
0 0 1 0 0 0 1 1 1 -1 -2 -3 -3 -3 -3 -3 -3 -3 -3 -2 -2 -1 -0 1 1 2 2 2 1 1 0 -0 -0 0 0 0 -0 -0 0 1 1 1 1 0
1 1 1 1 1 0 1 1 1 -0 -1 -2 -3 -3 -3 -3 -3 -3 -2 -2 -1 -0 1 1 2 2 2 1 1 1 1 0 0 0 0 1 1 1 1 1 2 2 2 1
2 2 2 2 1 1 1 1 0 0 -0 -1 -1 -2 -2 -2 -2 -1 -1 -0 0 1 1 2 2 2 2 2 2 2 1 1 1 1 1 1 1 2 2 2 2 2 2 2
2 1 1 1 1 1 1 0 -0 -0 -0 -0 -0 -0 -0 -0 0 1 1 1 2 2 2 2 2 2 2 2 2 2 2 2 2 2 2 2 3 3 3 3 3 3 3 3
1 1 0 1 1 0 -0 -0 -0 -0 -0 -0 0 1 1 1 2 2 2 2 2 2 2 3 3 3 3 3 3 4 4 4 4 4 4 4 4 4 4 4 4 4 3 3
1 0 0 0 0 -0 -0 -0 -0 -0 -0 0 0 1 2 2 2 2 3 3 3 3 4 4 5 5 5 5 6 6 6 6 6 6 5 5 5 5 5 5 4 4 4 4
1 1 1 0 0 0 0 0 0 0 0 1 1 2 2 3 3 4 4 4 5 5 6 7 8 8 8 8 8 8 8 8 7 7 7 7 6 6 6 6 5 5 4 4
1 1 1 1 1 1 1 1 1 1 2 2 2 3 4 4 5 5 6 7 7 8 8 9 10 10 10 9 9 8 8 8 8 8 8 8 8 8 8 7 7 6 6 5
0 -0 0 1 1 1 1 1 1 2 3 3 4 5 6 6 7 7 8 8 9 9 10 10 10 9 9 9 9 9 9 9 10 10 10 10 10 10 10 10 9 8 7 7
-0 -0 -0 0 1 1 1 1 2 3 4 4 5 6 7 7 8 8 9 9 10 10 10 10 10 10 10 10 10 10 10 11 11 11 11 11 11 11 11 11 10 10 9 9
-1 -1 -0 0 1 1 1 2 3 4 4 5 6 7 7 8 8 8 9 10 10 10 10 10 10 10 10 10 11 11 11 12 12 12 12 12 12 12 12 12 11 11 11 11
-0 -0 -0 0 1 1 2 3 4 4 5 6 7 7 8 8 8 9 10 10 11 11 10 10 10 10 10 10 11 11 12 12 12 12 12 13 13 13 13 13 12 12 12 12
-0 0 0 1 1 1 2 4 4 5 6 7 7 7 8 8 9 10 10 11 11 10 10 9 9 9 10 10 11 11 12 12 12 13 13 14 14 14 14 14 14 14 14 13
0 0 1 1 1 2 3 4 5 6 7 7 7 8 8 9 9 10 10 10 10 9 9 9 9 10 10 11 11 11 12 12 12 13 13 14 15 15 15 15 15 15 15 14
0 0 1 1 1 2 3 4 6 7 7 7 7 8 8 9 10 10 10 10 9 9 9 10 10 11 11 11 11 12 12 12 12 13 13 14 15 15 15 15 15 15 14 14
0 0 1 1 2 2 4 5 7 7 7 7 7 8 9 9 10 10 10 9 8 9 10 10 11 11 11 11 11 12 12 12 12 13 13 14 14 14 14 14 13 13 13 13
0 0 1 1 2 4 5 7 7 7 7 8 8 8 9 10 10 10 9 8 8 9 10 11 11 10 10 11 11 12 12 12 12 12 13 13 14 13 13 12 12 11 11 10
0 1 1 3 4 5 7 7 8 8 8 9 9 9 10 10 10 9 8 8 9 9 10 10 10 10 10 11 11 12 12 12 12 12 13 13 13 12 12 11 10 10 9 8
1 2 3 4 5 6 6 7 7 8 8 9 9 10 10 10 9 8 8 8 9 9 10 10 10 10 10 11 11 11 11 12 12 12 13 13 12 11 11 9 8 8 7 6
2 3 4 5 5 6 6 6 6 7 8 9 9 9 9 9 9 8 8 8 9 9 9 9 10 10 10 10 11 11 11 12 12 12 13 12 12 11 10 8 7 6 5 5
2 3 4 5 5 5 5 5 5 6 7 8 8 9 9 8 8 8 7 8 8 8 9 9 9 9 10 10 11 11 11 11 12 12 12 12 12 11 10 8 7 6 5 4
2 3 4 5 5 5 5 5 5 5 6 7 7 8 7 7 7 7 7 7 7 8 8 8 9 9 9 10 11 11 11 11 12 12 12 12 12 11 10 9 8 6 5 4
3 3 4 5 5 5 5 4 5 5 6 7 7 7 6 6 6 6 6 6 7 7 7 8 8 9 9 10 10 11 11 11 12 12 13 13 12 12 11 10 9 8 6 5
2 3 4 4 4 4 5 5 5 6 6 7 7 6 6 5 5 6 6 6 6 7 7 8 8 9 9 10 10 11 11 11 12 12 13 13 13 12 12 11 10 9 7 6